This demonstration page uses our WeatherBlox Daily Observations layout. Learn more.

Left ArrowRight Arrow

36.17497, -115.13722

Hourly Observations for September 4, 2017

Temp ( °F °C ) Dew Point ( °F °C ) Humidity (%) Winds ( mph kmh ) Pressure ( in mb ) Visibility ( mi km ) Precip ( " mm )
12:53 am 00:53 Clear 89 31.7 50 10 26 26 Calm 29.93 1013 10 16 0.00 0.00
1:53 am 01:53 Clear 87 30.6 51 10.6 29 29 NW 3 6 29.92 1013 10 16 0.00 0.00
2:53 am 02:53 Clear 86 30 53 11.7 32 32 Calm 29.91 1013 10 16 0.00 0.00
3:53 am 03:53 Clear 84 28.9 55 12.8 37 37 N 7 11 29.92 1013 10 16 0.00 0.00
4:53 am 04:53 Clear 83 28.3 52 11.1 34 34 N 5 7 29.92 1013 10 16 0.00 0.00
5:53 am 05:53 Clear 83 28.3 50 10 32 32 N 7 11 29.93 1014 10 16 0.00 0.00
6:53 am 06:53 Sunny 82 27.8 53 11.7 37 37 N 3 6 29.96 1014 10 16 0.00 0.00
7:53 am 07:53 Sunny 83 28.3 59 15 44 44 N 5 7 29.97 1015 10 16 0.00 0.00
8:53 am 08:53 Sunny 86 30 61 16.1 43 43 Calm 29.97 1015 10 16 0.00 0.00
9:53 am 09:53 Sunny 90 32.2 57 13.9 33 33 E 3 6 29.97 1015 10 16 0.00 0.00
10:53 am 10:53 Sunny 93 33.9 57 13.9 30 30 ESE 5 7 29.96 1014 10 16 0.00 0.00
11:53 am 11:53 Sunny 94 34.4 53 11.7 25 25 SSE 5 7 29.94 1014 10 16 0.00 0.00
12:53 pm 12:53 Sunny 99 37.2 52 11.1 21 21 VRB 3 6 29.91 1013 10 16 0.00 0.00
1:53 pm 13:53 Sunny 100 37.8 51 10.6 19 19 Calm 29.88 1012 10 16 0.00 0.00
2:53 pm 14:53 Sunny 101 38.3 49 9.4 17 17 Calm 29.85 1011 10 16 0.00 0.00
3:53 pm 15:53 Sunny 102 38.9 46 7.8 15 15 SSE 5 7 29.83 1010 10 16 0.00 0.00
4:53 pm 16:53 Sunny 102 38.9 46 7.8 15 15 Calm 29.81 1010 10 16 0.00 0.00
5:53 pm 17:53 Sunny 101 38.3 48 8.9 17 17 Calm 29.81 1009 10 16 0.00 0.00
6:53 pm 18:53 Sunny 100 37.8 49 9.4 18 18 SE 5 7 29.82 1010 10 16 0.00 0.00
7:53 pm 19:53 Clear 97 36.1 50 10 20 20 SE 8 13 29.84 1010 10 16 0.00 0.00
8:53 pm 20:53 Clear 94 34.4 49 9.4 21 21 S 12 19 29.87 1012 10 16 0.00 0.00
9:53 pm 21:53 Clear 94 34.4 51 10.6 23 23 NNW 5 7 29.88 1012 10 16 0.00 0.00
10:53 pm 22:53 Clear 92 33.3 51 10.6 25 25 E 6 9 29.87 1012 10 16 0.00 0.00
11:53 pm 23:53 Clear 90 32.2 52 11.1 27 27 WNW 5 7 29.87 1011 10 16 0.00 0.00

Powered by AerisWeather